Temperature
12 12 12 12 12 12 12 12 12 12 12 12 12 13 13 13 14 14 14 14 14 14 15 15 15 15 15 15 15 15 15 15 15 15 16 15 15 15 15 15 15 15 15
12 12 12 12 12 12 12 12 12 12 12 12 12 13 13 13 13 13 13 14 14 14 14 14 15 15 15 15 15 15 15 15 15 15 15 15 15 15 15 14 14 14 14
12 12 12 12 12 11 11 12 12 12 12 12 12 12 12 13 13 13 13 14 14 14 14 14 14 14 15 14 14 15 15 15 15 14 14 15 14 14 14 14 14 14 13
12 12 12 11 11 11 11 11 11 12 12 12 12 12 12 12 12 13 13 13 13 14 14 14 14 14 14 14 14 14 14 14 14 14 14 14 14 14 14 14 13 13 13
12 12 11 11 11 11 11 11 11 11 12 12 12 12 12 12 12 12 13 13 13 13 13 13 14 14 14 14 14 14 14 14 14 14 14 14 14 13 13 13 13 12 12
12 12 11 11 11 11 11 11 11 11 11 11 11 12 12 12 12 12 12 12 13 13 13 13 13 13 14 14 14 14 14 14 14 14 14 13 13 13 13 13 13 12 12
12 11 11 11 11 11 11 11 11 11 11 11 12 12 12 12 12 12 12 12 12 12 12 13 13 13 13 13 14 14 14 13 14 14 14 14 13 13 13 13 12 12 12
12 12 11 11 11 11 11 11 11 11 11 11 12 12 12 12 12 12 12 12 12 12 12 12 13 13 13 13 13 13 13 13 13 13 14 14 13 13 13 13 12 12 12
12 11 11 11 11 11 11 11 11 11 11 11 11 11 12 11 11 12 12 12 12 12 12 12 12 13 13 13 13 13 13 13 13 13 13 13 13 13 13 12 12 12 11
12 11 11 11 11 11 11 11 11 11 11 11 11 11 11 11 11 11 12 12 12 12 12 12 12 12 13 13 13 13 13 13 13 13 13 12 12 12 12 12 12 12 11
12 12 11 11 11 11 11 11 11 11 11 11 11 11 11 11 11 11 12 12 12 12 12 12 12 12 12 12 13 13 13 12 12 12 12 12 12 12 12 12 12 12 12
12 12 12 11 11 11 11 11 11 11 11 11 11 11 11 11 11 11 12 12 12 12 12 12 12 12 12 12 12 12 12 12 12 12 12 12 12 12 11 11 11 11 11
12 12 12 11 11 11 11 11 11 11 11 11 11 11 11 11 11 11 11 12 12 12 12 12 12 12 12 12 12 12 12 12 12 12 11 11 11 11 11 11 11 11 11
12 12 12 12 11 11 11 11 11 11 11 11 11 11 11 11 11 11 11 11 11 11 11 12 12 12 12 12 11 11 11 11 11 11 11 11 11 11 11 11 11 11 11
13 12 12 12 11 11 11 11 11 11 11 11 11 11 11 11 11 11 11 11 11 11 11 11 11 11 11 11 11 11 11 11 11 11 11 11 11 10 10 10 10 10 10
13 13 12 12 12 11 11 11 11 11 11 11 11 11 11 11 11 11 11 11 11 11 11 11 11 11 11 11 11 11 11 11 11 11 10 10 10 10 10 10 10 10 10
13 13 12 12 12 11 11 11 11 11 11 11 11 11 11 11 11 11 11 11 11 11 11 11 11 11 11 11 10 10 10 10 10 10 10 10 10 10 10 10 9 9 9
13 13 13 12 12 12 11 11 11 11 11 11 11 11 11 11 11 11 10 10 10 10 10 10 10 10 10 10 10 10 10 10 10 10 10 10 10 9 9 9 9 9 9
14 13 13 13 12 12 12 11 11 11 11 11 11 11 11 11 11 10 10 10 10 10 10 10 10 10 10 10 10 10 10 10 10 10 10 9 9 9 9 9 9 9 8
14 14 13 13 12 12 12 12 11 11 11 11 11 11 11 11 11 11 10 10 10 10 10 10 10 10 10 10 10 10 10 10 10 10 9 9 9 9 9 9 9 8 8
14 14 13 13 13 12 12 12 12 12 12 11 11 11 11 11 11 11 11 11 10 10 10 10 10 10 10 10 10 10 10 10 10 10 9 9 9 9 9 8 8 8 8
14 14 13 13 13 12 12 12 12 12 12 12 12 11 11 11 11 11 11 11 11 10 10 10 10 10 10 10 10 10 10 10 10 10 9 9 9 9 8 8 8 8 8
14 14 13 13 13 13 12 12 12 12 12 12 12 12 11 11 11 11 11 11 11 11 10 10 10 11 10 10 10 10 10 10 10 10 9 9 9 9 8 8 8 8 8
14 14 13 13 13 13 12 12 12 12 12 12 12 12 12 12 11 11 11 11 11 11 11 11 11 11 10 10 10 10 10 10 10 10 9 9 9 8 8 8 8 8 8
14 14 13 13 13 13 12 12 12 12 12 12 12 12 12 12 12 12 11 11 11 11 11 11 11 11 11 11 10 10 10 10 10 10 9 9 9 9 8 8 8 8 7
14 14 13 13 13 13 13 12 12 12 12 12 12 12 12 12 12 12 12 11 11 11 11 11 11 11 11 11 10 10 10 10 10 10 9 9 9 9 8 8 8 8 7
Wind_Speed
7 7 8 8 8 8 7 7 7 7 7 6 6 5 4 3 2 1 0 2 4 5 5 7 8 7 7 6 6 5 4 4 4 2 2 3 3 6 7 9 9 9 9
6 7 7 8 8 8 8 8 7 7 7 7 6 6 5 4 3 2 1 0 2 4 5 6 7 7 8 7 6 6 5 5 5 5 3 3 3 6 7 7 7 9 10
6 6 7 8 8 8 8 8 7 7 8 7 7 7 6 5 3 3 2 1 1 2 3 5 6 8 9 7 7 7 5 5 5 6 5 3 3 5 7 7 8 7 10
5 6 7 8 8 8 7 7 7 7 7 8 7 7 6 5 4 3 2 2 2 2 2 3 4 6 8 8 8 8 7 7 7 7 6 5 5 5 7 8 7 6 6
5 6 7 7 7 7 7 7 7 7 8 7 8 7 7 5 4 4 3 4 4 4 4 3 3 5 7 7 7 8 9 8 7 7 7 6 6 7 7 6 8 7 6
4 5 6 7 7 7 7 7 7 8 8 8 8 8 8 7 8 7 5 4 4 4 4 4 3 4 6 7 10 11 11 10 8 7 5 7 7 6 6 8 8 7 4
4 5 6 6 7 7 7 8 7 7 7 8 8 8 8 9 11 11 10 6 6 5 4 3 4 4 5 5 8 10 9 9 9 8 8 7 7 8 9 8 7 6 5
4 5 5 5 6 6 7 7 7 6 6 6 7 8 8 11 14 13 12 9 8 7 6 4 4 4 5 7 8 7 6 5 6 6 7 7 7 8 8 8 8 8 7
3 4 4 4 5 6 6 6 5 5 6 6 7 8 9 10 14 13 11 7 7 8 7 6 5 5 8 11 10 10 9 7 8 10 11 10 12 12 12 9 9 9 6
2 3 3 3 4 5 5 5 4 4 5 6 8 8 9 9 13 14 10 6 7 6 7 8 9 8 9 10 9 10 10 7 8 9 10 10 9 11 12 9 9 9 6
2 2 3 3 3 4 4 4 5 5 6 6 7 8 9 10 12 15 13 7 6 6 7 6 7 11 12 11 9 8 10 9 9 9 8 8 7 6 6 6 6 7 6
1 1 2 3 3 4 5 5 5 6 6 6 6 7 7 8 10 11 14 12 9 8 6 5 7 12 13 13 10 12 14 11 8 8 8 6 6 5 5 7 9 9 6
1 0 0 1 2 3 4 4 4 5 5 4 5 5 5 6 8 12 12 12 11 7 6 9 11 12 12 10 12 13 10 8 7 7 7 5 4 5 6 6 8 10 12
2 2 2 2 1 2 3 3 3 3 3 3 4 4 4 5 6 6 5 5 7 7 6 8 11 12 10 10 9 8 6 6 7 6 5 4 4 5 5 5 5 5 6
3 3 3 3 3 1 1 1 1 1 1 1 0 1 2 3 5 6 3 3 3 3 4 5 5 5 5 6 6 6 5 5 6 4 5 5 5 5 4 3 3 4 4
4 4 3 3 3 3 2 0 3 2 2 1 1 1 1 2 4 5 6 6 6 6 6 4 4 4 4 4 5 4 4 4 4 5 5 5 5 5 4 3 4 4 5
6 6 4 4 4 4 3 3 2 3 3 3 2 1 1 2 4 5 5 6 6 7 5 4 3 3 3 3 4 4 3 3 3 4 5 4 5 4 4 4 4 4 4
7 7 6 5 5 4 4 4 4 3 2 2 3 3 2 2 3 4 4 5 4 4 3 3 3 3 3 3 3 3 3 3 3 3 4 4 4 4 4 4 4 4 4
7 6 6 5 5 5 4 4 4 4 4 3 2 2 3 2 2 2 3 2 2 1 2 2 2 3 3 3 3 3 3 3 3 3 3 4 4 4 4 4 4 6 4
7 9 8 6 5 4 4 4 4 4 5 4 4 4 2 1 0 1 1 2 2 2 2 3 3 3 3 3 3 4 3 3 4 3 3 3 4 4 5 5 5 5 4
7 7 10 6 5 5 5 5 5 5 5 6 6 6 7 4 4 4 3 3 4 4 4 4 4 4 3 3 4 4 5 4 4 4 4 4 4 4 4 4 5 5 4
7 7 6 6 6 6 6 6 5 6 6 7 5 5 9 5 5 5 5 5 5 5 5 5 5 4 4 5 5 5 5 5 4 4 4 4 4 4 4 4 4 4 4
8 8 7 6 6 8 7 6 6 6 6 7 6 6 6 6 6 6 6 6 5 5 5 5 5 4 5 7 7 6 6 6 6 6 6 5 5 4 4 4 5 5 5
9 9 8 7 6 6 7 7 7 7 7 7 7 7 7 7 7 8 7 6 6 5 6 7 7 8 9 9 9 10 10 10 10 10 8 7 6 5 4 4 5 6 5
10 10 9 8 8 7 7 7 7 8 7 7 7 7 7 8 8 8 7 7 7 7 8 9 9 10 12 13 12 12 12 12 12 12 10 6 6 6 5 5 5 4 5
11 10 9 8 8 8 8 8 8 8 8 7 7 8 8 8 8 8 7 7 7 7 7 8 11 13 14 15 16 17 16 15 15 14 12 8 6 6 6 5 6 5 5
Wind_Direction
346 346 354 352 352 354 357 354 351 352 354 359 357 360 360 356 349 351 237 189 192 192 195 191 193 181 176 175 169 166 165 152 152 147 123 125 130 137 130 138 143 147 153
348 355 358 353 357 0 358 355 357 358 359 2 4 6 6 7 7 19 9 179 182 187 192 188 191 184 176 175 173 169 167 154 146 145 138 134 127 139 135 131 127 129 130
357 3 2 358 358 357 355 357 2 4 3 4 8 7 4 3 6 9 21 24 177 190 187 184 187 177 178 174 171 168 163 158 142 144 146 131 119 129 126 120 118 114 116
7 8 3 354 351 352 354 358 1 5 7 6 7 6 5 7 10 21 35 48 60 103 147 165 169 171 174 170 171 169 162 156 149 147 144 139 132 131 129 129 122 111 110
13 8 355 348 352 360 2 1 3 9 12 9 12 12 10 15 26 37 49 56 57 67 78 94 131 152 162 164 164 164 162 160 155 152 150 145 144 147 145 136 129 117 98
14 1 352 356 1 4 3 5 9 10 10 17 17 16 18 22 30 43 57 60 64 72 77 75 85 112 142 150 155 157 161 163 162 159 157 156 154 147 139 140 136 134 124
12 359 357 360 2 359 6 12 10 7 14 20 15 17 18 20 36 49 57 61 62 64 69 77 89 95 111 117 124 134 145 149 152 154 151 153 153 154 147 144 144 133 125
13 359 356 3 3 2 10 12 7 7 14 15 14 15 21 27 41 50 55 59 60 57 57 64 85 91 114 120 114 110 110 115 132 137 145 146 148 149 149 144 135 112 102
6 350 349 358 6 9 11 7 6 12 17 15 15 22 29 28 38 45 52 56 59 53 50 52 72 96 108 117 116 114 105 94 91 104 111 119 128 135 136 130 132 133 130
321 327 343 1 14 13 9 8 9 18 20 24 28 27 31 28 34 43 50 57 60 52 48 48 60 84 103 108 114 118 114 106 104 98 94 99 108 120 131 142 147 144 136
286 340 3 8 22 26 21 18 21 28 32 33 33 26 27 26 32 42 48 54 58 62 56 50 56 77 90 95 100 108 116 114 106 103 99 95 93 93 91 97 116 140 139
289 10 11 15 29 47 46 32 27 34 40 33 33 28 23 20 30 41 49 56 59 66 59 50 58 71 79 85 92 101 105 104 101 100 98 96 97 94 90 89 92 86 86
150 69 21 58 48 50 58 47 34 35 44 34 34 32 21 16 22 35 43 49 53 61 60 63 68 70 72 75 84 91 95 98 101 102 104 97 90 101 100 93 82 81 71
169 202 184 147 101 52 54 55 54 41 43 40 35 29 21 19 16 13 20 33 43 51 53 56 61 67 68 70 75 76 78 95 108 110 108 99 91 92 97 103 102 91 77
184 193 180 175 168 139 82 48 46 333 280 110 41 17 33 16 345 359 32 42 52 67 73 61 58 60 65 64 69 74 79 90 95 99 107 107 105 105 98 89 95 86 94
183 195 196 193 190 181 169 355 346 327 341 356 202 187 321 327 353 27 42 56 71 84 83 79 77 79 86 90 93 84 81 95 104 113 115 118 122 121 113 95 94 106 113
189 198 201 197 194 195 197 199 241 314 329 333 322 294 315 352 17 26 43 58 68 85 86 90 94 97 97 100 103 104 102 102 110 119 125 131 131 125 123 123 119 114 117
192 199 196 200 199 199 203 205 200 200 240 289 299 284 292 329 360 22 61 70 58 59 94 113 119 122 123 121 119 116 111 107 108 119 126 134 138 135 136 143 146 144 141
189 195 198 200 204 204 203 201 202 202 205 220 250 286 280 302 346 15 68 94 120 113 122 131 140 139 138 140 139 135 133 132 132 132 136 141 145 142 147 157 159 156 145
196 201 193 196 204 207 205 203 206 206 207 209 216 224 223 168 233 279 203 181 174 177 171 163 165 160 156 154 151 146 141 140 141 142 150 153 153 152 160 164 163 162 168
194 202 201 196 204 207 205 208 209 205 206 212 221 218 189 186 207 217 215 207 200 195 188 181 177 173 170 164 160 162 161 165 167 163 161 163 158 157 161 163 169 168 163
190 195 195 201 208 211 212 212 209 209 210 213 222 226 208 201 209 216 218 218 214 205 192 182 183 186 182 178 174 172 174 179 180 173 169 168 164 160 157 160 164 166 166
191 195 199 207 210 216 217 213 210 210 213 213 211 209 204 209 216 217 218 217 210 205 198 189 186 193 199 196 191 181 182 191 191 178 171 170 171 170 167 170 173 168 177
195 198 202 207 211 213 216 218 216 215 215 215 213 211 211 212 215 217 216 212 207 206 200 198 199 202 200 199 201 201 202 202 196 190 181 174 176 176 173 177 182 185 188
199 202 203 206 209 213 217 220 220 219 219 218 216 215 214 214 216 219 215 210 205 207 207 205 206 209 209 205 202 204 206 203 197 192 186 176 178 180 179 182 183 182 183
202 205 206 206 209 211 213 218 221 220 220 221 218 215 213 213 215 216 212 208 208 211 212 210 211 211 211 211 212 210 207 204 201 196 187 177 177 185 182 186 189 187 187
Height
1515 1510 1506 1501 1497 1493 1489 1486 1483 1480 1477 1475 1473 1471 1470 1469 1468 1469 1469 1471 1472 1475 1477 1480 1484 1488 1492 1495 1499 1503 1506 1510 1514 1517 1521 1524 1527 1530 1534 1537 1540 1543 1545
1516 1511 1507 1503 1498 1494 1491 1487 1484 1481 1478 1476 1473 1471 1469 1468 1467 1467 1468 1469 1470 1472 1474 1477 1480 1484 1487 1491 1495 1498 1502 1505 1510 1513 1517 1521 1524 1528 1531 1534 1537 1540 1542
1516 1512 1508 1504 1500 1496 1492 1489 1486 1483 1480 1477 1475 1472 1470 1468 1467 1466 1467 1467 1468 1470 1472 1475 1477 1481 1484 1488 1491 1494 1498 1502 1506 1510 1514 1518 1522 1525 1528 1531 1534 1537 1539
1517 1513 1509 1505 1502 1498 1494 1491 1488 1485 1482 1479 1476 1473 1471 1469 1467 1466 1466 1467 1467 1468 1470 1472 1475 1478 1481 1485 1488 1492 1496 1500 1503 1507 1511 1515 1519 1522 1526 1529 1532 1534 1537
1518 1514 1511 1507 1504 1500 1497 1493 1490 1487 1484 1481 1478 1475 1472 1470 1468 1467 1466 1466 1467 1468 1469 1471 1474 1477 1479 1483 1486 1489 1493 1497 1500 1504 1508 1512 1516 1519 1523 1526 1529 1532 1535
1519 1516 1512 1509 1506 1502 1499 1496 1492 1489 1487 1484 1480 1477 1474 1472 1470 1468 1467 1467 1468 1469 1470 1472 1474 1476 1479 1482 1485 1488 1492 1495 1498 1501 1505 1508 1512 1516 1520 1524 1527 1530 1533
1520 1517 1514 1511 1508 1504 1501 1498 1495 1492 1489 1487 1483 1480 1477 1475 1472 1470 1469 1469 1469 1470 1471 1473 1475 1477 1479 1482 1485 1488 1491 1494 1498 1501 1503 1507 1510 1514 1518 1522 1526 1529 1531
1521 1518 1516 1513 1510 1507 1504 1501 1498 1495 1492 1490 1486 1484 1481 1478 1476 1474 1472 1471 1472 1473 1474 1475 1476 1478 1480 1482 1485 1488 1491 1494 1497 1501 1504 1507 1510 1514 1518 1521 1525 1528 1532
1523 1520 1517 1515 1512 1509 1506 1503 1501 1498 1496 1493 1490 1487 1485 1482 1480 1478 1477 1476 1476 1476 1477 1478 1479 1480 1481 1484 1487 1489 1492 1494 1498 1501 1504 1507 1511 1515 1518 1521 1525 1527 1530
1523 1521 1519 1516 1514 1511 1508 1506 1503 1501 1499 1496 1493 1491 1488 1486 1485 1483 1481 1480 1480 1480 1480 1481 1482 1482 1484 1486 1488 1491 1493 1495 1498 1502 1505 1508 1512 1515 1519 1522 1525 1527 1530
1524 1522 1520 1518 1515 1513 1510 1508 1506 1504 1501 1499 1497 1494 1492 1491 1489 1487 1486 1485 1484 1484 1484 1484 1485 1486 1487 1489 1491 1493 1495 1497 1500 1503 1506 1509 1513 1516 1519 1523 1526 1528 1530
1525 1523 1521 1519 1517 1515 1512 1510 1508 1506 1504 1502 1500 1498 1496 1495 1493 1492 1491 1490 1489 1488 1488 1489 1489 1490 1491 1492 1494 1496 1498 1500 1503 1506 1509 1512 1515 1518 1521 1524 1526 1529 1531
1526 1524 1522 1521 1519 1517 1514 1512 1510 1508 1506 1505 1503 1501 1500 1498 1497 1496 1495 1495 1494 1493 1493 1494 1494 1495 1496 1497 1498 1500 1502 1504 1506 1509 1512 1514 1517 1520 1522 1525 1527 1529 1531
1525 1524 1523 1521 1520 1518 1516 1515 1513 1511 1509 1507 1506 1504 1503 1502 1501 1500 1499 1499 1498 1498 1498 1498 1499 1500 1500 1501 1503 1505 1507 1509 1511 1513 1515 1517 1519 1521 1524 1526 1527 1529 1530
1525 1524 1523 1522 1520 1519 1518 1516 1514 1513 1511 1510 1508 1507 1506 1505 1504 1503 1503 1502 1502 1502 1502 1502 1503 1504 1504 1505 1507 1508 1510 1512 1514 1515 1517 1519 1521 1523 1525 1526 1528 1529 1530
1524 1523 1522 1521 1521 1520 1518 1517 1516 1514 1513 1512 1510 1509 1508 1507 1506 1505 1505 1505 1505 1505 1506 1506 1506 1507 1508 1509 1510 1511 1513 1514 1516 1517 1519 1520 1522 1524 1525 1527 1528 1529 1530
1522 1522 1521 1521 1520 1519 1518 1517 1516 1516 1514 1513 1512 1511 1510 1509 1508 1508 1507 1507 1507 1508 1508 1508 1509 1509 1510 1511 1512 1513 1514 1516 1517 1519 1520 1521 1523 1524 1526 1527 1528 1529 1530
1520 1520 1519 1519 1519 1518 1518 1517 1516 1516 1515 1514 1513 1512 1511 1510 1510 1509 1509 1509 1509 1509 1509 1510 1510 1511 1511 1512 1513 1514 1515 1516 1518 1519 1521 1522 1523 1524 1526 1527 1528 1529 1530
1517 1517 1517 1517 1517 1517 1516 1516 1516 1515 1515 1514 1513 1512 1512 1511 1511 1510 1510 1510 1510 1510 1510 1510 1511 1511 1512 1513 1513 1514 1515 1517 1518 1519 1520 1522 1523 1524 1525 1526 1527 1528 1529
1513 1513 1514 1514 1514 1514 1514 1514 1514 1514 1513 1513 1513 1512 1512 1511 1511 1510 1510 1510 1510 1510 1510 1510 1511 1511 1512 1512 1513 1514 1515 1516 1517 1519 1520 1521 1522 1523 1524 1525 1526 1527 1528
1509 1509 1510 1510 1510 1511 1511 1511 1511 1511 1511 1511 1511 1511 1511 1510 1510 1510 1509 1509 1509 1509 1510 1510 1510 1511 1511 1512 1512 1513 1514 1515 1516 1517 1518 1519 1521 1522 1523 1524 1525 1526 1527
1504 1505 1505 1506 1506 1507 1507 1508 1508 1509 1509 1509 1509 1509 1509 1509 1508 1508 1508 1508 1508 1508 1508 1509 1509 1509 1510 1510 1511 1511 1512 1513 1514 1515 1516 1517 1519 1520 1521 1521 1523 1524 1525
1499 1500 1500 1501 1502 1502 1503 1504 1504 1505 1505 1505 1506 1506 1506 1506 1506 1506 1506 1506 1506 1506 1506 1507 1507 1507 1508 1508 1509 1509 1510 1511 1512 1513 1514 1515 1516 1517 1518 1519 1520 1521 1522
1492 1493 1494 1495 1496 1497 1498 1499 1500 1500 1501 1502 1502 1502 1503 1503 1503 1503 1503 1503 1503 1504 1504 1504 1504 1505 1505 1506 1506 1507 1508 1508 1509 1510 1511 1512 1513 1514 1515 1516 1517 1518 1519
1485 1487 1488 1489 1490 1491 1492 1493 1494 1495 1496 1497 1497 1498 1499 1499 1499 1500 1500 1500 1500 1500 1501 1501 1501 1502 1502 1503 1503 1504 1505 1505 1506 1507 1508 1509 1509 1510 1511 1512 1513 1514 1515
1478 1479 1481 1482 1483 1484 1486 1487 1488 1489 1490 1491 1492 1493 1494 1494 1495 1496 1496 1496 1497 1497 1497 1497 1498 1498 1499 1499 1500 1500 1501 1502 1502 1503 1504 1505 1505 1506 1507 1508 1509 1510 1511